TimeCEST,TemperatureF,Dew PointF,Humidity,Sea Level PressureIn,VisibilityMPH,Wind Direction,Wind SpeedMPH,Gust SpeedMPH,PrecipitationIn,Events,Conditions,WindDirDegrees,DateUTC
12:00 AM,68.0,64.4,88,30.15,-9999.0,SSW,4.6,-,N/A,,Clear,200,2012-10-01 22:00:00
1:00 AM,68.0,62.6,83,30.15,-9999.0,South,4.6,-,N/A,,Clear,190,2012-10-01 23:00:00
2:00 AM,66.2,62.6,88,30.15,-9999.0,South,3.5,-,N/A,,Clear,180,2012-10-02 00:00:00
3:00 AM,64.4,62.6,94,30.15,-9999.0,Variable,2.3,-,N/A,,Clear,0,2012-10-02 01:00:00
4:00 AM,64.4,60.8,88,30.15,-9999.0,South,3.5,-,N/A,,Clear,170,2012-10-02 02:00:00
5:00 AM,62.6,60.8,94,30.12,-9999.0,SSE,3.5,-,N/A,,Clear,160,2012-10-02 03:00:00
6:00 AM,60.8,59.0,94,30.12,-9999.0,Calm,Calm,-,N/A,,Clear,0,2012-10-02 04:00:00
8:00 AM,60.8,59.0,94,30.12,-9999.0,Variable,2.3,-,N/A,,Clear,0,2012-10-02 06:00:00
9:00 AM,64.4,60.8,88,30.15,-9999.0,Calm,Calm,-,N/A,,Clear,0,2012-10-02 07:00:00
10:00 AM,66.2,60.8,83,30.15,-9999.0,Calm,Calm,-,N/A,,Clear,0,2012-10-02 08:00:00
11:00 AM,71.6,62.6,73,30.15,-9999.0,NE,5.8,-,N/A,,Clear,50,2012-10-02 09:00:00
12:00 PM,77.0,64.4,65,30.15,-9999.0,ENE,4.6,-,N/A,,Clear,60,2012-10-02 10:00:00
1:00 PM,80.6,60.8,51,30.15,-9999.0,East,4.6,-,N/A,,Clear,90,2012-10-02 11:00:00
2:00 PM,82.4,60.8,48,30.15,-9999.0,ENE,5.8,-,N/A,,Clear,60,2012-10-02 12:00:00
3:00 PM,82.4,59.0,45,30.12,-9999.0,North,5.8,-,N/A,,Clear,10,2012-10-02 13:00:00
4:00 PM,84.2,59.0,42,30.12,-9999.0,ENE,5.8,-,N/A,,Clear,60,2012-10-02 14:00:00
5:00 PM,86.0,57.2,37,30.09,-9999.0,East,5.8,-,N/A,,Clear,90,2012-10-02 15:00:00
6:00 PM,86.0,55.4,35,30.09,-9999.0,East,4.6,-,N/A,,Clear,80,2012-10-02 16:00:00
7:00 PM,84.2,55.4,37,30.09,-9999.0,North,3.5,-,N/A,,Clear,360,2012-10-02 17:00:00
8:00 PM,80.6,59.0,48,30.09,-9999.0,Variable,1.2,-,N/A,,Clear,0,2012-10-02 18:00:00
9:00 PM,77.0,60.8,57,30.09,-9999.0,Calm,Calm,-,N/A,,Clear,0,2012-10-02 19:00:00
10:00 PM,73.4,59.0,61,30.09,-9999.0,Variable,2.3,-,N/A,,Clear,0,2012-10-02 20:00:00
11:00 PM,69.8,60.8,73,30.12,-9999.0,SW,6.9,-,N/A,,Clear,220,2012-10-02 21:00:00